Find Starlink 33741

NORAD ID: 63365 Int'l Des: 2025-063 Owner: SPXS Country: US Constellation: starlink operational
LEOCIRCULAR

現在のビュー

3D地球を読み込み中...

About Starlink 33741

Starlink 33741 (NORAD 63365) is a starlink constellation satellite (v2 mini) launched Mar 26, 2025 by SPXS of US. It operates in LEO, CIRCULAR orbit with a mass of 575.00 kg.

Starlink 33741について

説明を読み込み中...

次回通過

Passes for default location (London). Set your location on the main map for personalized predictions.

高度履歴

Loading altitude history...

軌道要素

1 63365U 25063C 26193.00488069 .00015259 00000-0 46176-3 0 9994
2 63365 53.1521 191.4140 0002158 94.3270 265.7979 15.34403867 73841
Epoch: Jul 12, 2026 • Age: 24 hours

現在のステータス

高度 465.6 km
遠地点 / 近地点 N/A
速度 7.64 km/s
衛星直下点 42.68°N, 57.92°W
打ち上げ日 Mar 26, 2025
運用期間 1.2 years
タイプ internet

技術仕様

分類 Payload
質量 575.00 kg
乾燥質量 530.00 kg
総質量 575.00 kg
長さ 0.30 m
直径 4.10 m
スパン 29.00 m
形状 Box + pan
製造者 SPXS
バスタイプ Starlink V2MO
フェーズステータス In Orbit
所有者/国 SPXS/US

Most Searched